Liberal, KS

9:23 AM CDT on March 29, 2017 (GMT -0500)
Liberal Municipal

Weather History for KLBL - October, 2011

Change the Weather History Date:

Saturday, October 1, 2011

  Actual Average Record
Temperature  
Mean Temperature 66 °F -  
Max Temperature 84 °F 81 °F 97 °F (1993)
Min Temperature 48 °F 50 °F 32 °F (1985)
Cooling Degree Days 1    
Growing Degree Days 16 (Base 50)    
Moisture  
Dew Point 31 °F    
Average Humidity 30    
Maximum Humidity 46    
Minimum Humidity 16    
Precipitation  
Precipitation 0.00 in - - ()
Sea Level Pressure  
Sea Level Pressure 30.19 in    
Wind  
Wind Speed 13 mph (SSE)    
Max Wind Speed 23 mph    
Max Gust Speed 29 mph    
Visibility 10 miles    
Events      
Averages and records for this station are not official NWS values.
T = Trace of Precipitation, MM = Missing Value Source: NWS Daily Summary

Daily Weather History Graph

Daily Weather History Graph

Search for Another Location

Airport or City:

Trip Planner

Search our weather history database for the weather conditions in past years. The results will help you decide how hot, cold, wet, or windy it might be!

Date:

Astronomy

Oct. 01, 2011 Rise Set
Actual Time 7:39 AM CDT 7:27 PM CDT
Civil Twilight 7:13 AM CDT 7:53 PM CDT
Nautical Twilight 6:42 AM CDT 8:23 PM CDT
Astronomical Twilight 6:12 AM CDT 8:53 PM CDT
Moon 12:39 PM CDT (10/1) 10:34 PM CDT (10/1)
Length of Visible Light 12h 40m
Length of Day
11h 48m
Waxing Crescent, 24% of the Moon is Illuminated
Oct 1
Waxing Crescent
Oct 3
First Quarter
Oct 11
Full
Oct 19
Last Quarter
Oct 26
New

Hourly Weather History & Observations

Time (CDT) Temp. Dew Point Humidity Pressure Visibility Wind Dir Wind Speed Gust Speed Precip Events Conditions
12:15 AM 55.4 °F 26.6 °F 33% 30.21 in 10.0 mi SE 10.4 mph - N/A   Clear
12:35 AM 53.6 °F 26.6 °F 35% 30.21 in 10.0 mi SE 10.4 mph - N/A   Clear
12:55 AM 53.6 °F 26.6 °F 35% 30.21 in 10.0 mi SE 10.4 mph - N/A   Clear
1:15 AM 53.6 °F 26.6 °F 35% 30.21 in 10.0 mi SE 10.4 mph - N/A   Clear
1:35 AM 51.8 °F 26.6 °F 38% 30.22 in 10.0 mi SSE 10.4 mph - N/A   Clear
1:55 AM 51.8 °F 26.6 °F 38% 30.22 in 10.0 mi SE 10.4 mph - N/A   Clear
2:15 AM 51.8 °F 26.6 °F 38% 30.22 in 10.0 mi SSE 9.2 mph - N/A   Clear
2:35 AM 51.8 °F 26.6 °F 38% 30.22 in 10.0 mi SSE 8.1 mph - N/A   Clear
2:55 AM 50.0 °F 26.6 °F 40% 30.22 in 10.0 mi SSE 9.2 mph - N/A   Clear
3:15 AM 48.2 °F 26.6 °F 43% 30.23 in 10.0 mi SE 9.2 mph - N/A   Clear
3:35 AM 50.0 °F 28.4 °F 43% 30.23 in 10.0 mi SE 10.4 mph - N/A   Clear
3:55 AM 50.0 °F 28.4 °F 43% 30.22 in 10.0 mi SE 10.4 mph - N/A   Clear
4:15 AM 48.2 °F 28.4 °F 46% 30.22 in 10.0 mi SE 10.4 mph - N/A   Clear
4:35 AM 48.2 °F 28.4 °F 46% 30.22 in 10.0 mi SE 10.4 mph - N/A   Clear
4:55 AM 48.2 °F 28.4 °F 46% 30.21 in 10.0 mi SE 10.4 mph - N/A   Clear
5:15 AM 48.2 °F 28.4 °F 46% 30.21 in 10.0 mi SE 11.5 mph - N/A   Clear
5:35 AM 48.2 °F 28.4 °F 46% 30.21 in 10.0 mi SE 11.5 mph - N/A   Clear
5:55 AM 48.2 °F 28.4 °F 46% 30.20 in 10.0 mi SE 11.5 mph - N/A   Clear
6:15 AM 50.0 °F 28.4 °F 43% 30.20 in 10.0 mi SE 11.5 mph - N/A   Clear
6:35 AM 50.0 °F 28.4 °F 43% 30.20 in 10.0 mi SE 11.5 mph - N/A   Clear
6:55 AM 48.2 °F 28.4 °F 46% 30.20 in 10.0 mi SE 10.4 mph - N/A   Clear
7:15 AM 48.2 °F 28.4 °F 46% 30.21 in 10.0 mi SE 11.5 mph - N/A   Clear
7:35 AM 50.0 °F 28.4 °F 43% 30.20 in 10.0 mi SE 12.7 mph - N/A   Clear
7:55 AM 51.8 °F 28.4 °F 41% 30.20 in 10.0 mi SE 11.5 mph - N/A   Clear
8:15 AM 51.8 °F 30.2 °F 44% 30.21 in 10.0 mi SSE 10.4 mph - N/A   Clear
8:35 AM 53.6 °F 30.2 °F 41% 30.21 in 10.0 mi SSE 11.5 mph - N/A   Clear
9:15 AM 59.0 °F 30.2 °F 34% 30.21 in 10.0 mi SSE 17.3 mph - N/A   Clear
9:35 AM 62.6 °F 32.0 °F 32% 30.22 in 10.0 mi South 20.7 mph 24.2 mph N/A   Clear
9:55 AM 64.4 °F 30.2 °F 28% 30.22 in 10.0 mi South 20.7 mph - N/A   Clear
10:15 AM 66.2 °F 32.0 °F 28% 30.23 in 10.0 mi South 16.1 mph - N/A   Clear
10:35 AM 68.0 °F 32.0 °F 26% 30.23 in 10.0 mi South 17.3 mph 24.2 mph N/A   Clear
10:55 AM 69.8 °F 32.0 °F 25% 30.23 in 10.0 mi South 20.7 mph 24.2 mph N/A   Clear
11:15 AM 71.6 °F 33.8 °F 25% 30.23 in 10.0 mi South 23.0 mph - N/A   Clear
11:35 AM 73.4 °F 33.8 °F 23% 30.22 in 10.0 mi South 18.4 mph - N/A   Clear
11:55 AM 73.4 °F 33.8 °F 23% 30.22 in 10.0 mi South 18.4 mph - N/A   Clear
12:15 PM 75.2 °F 33.8 °F 22% 30.21 in 10.0 mi South 20.7 mph 25.3 mph N/A   Clear
12:35 PM 77.0 °F 33.8 °F 21% 30.21 in 10.0 mi South 17.3 mph 24.2 mph N/A   Clear
12:55 PM 77.0 °F 33.8 °F 21% 30.21 in 10.0 mi South 16.1 mph 23.0 mph N/A   Clear
1:15 PM 78.8 °F 35.6 °F 21% 30.20 in 10.0 mi South 16.1 mph 24.2 mph N/A   Clear
1:35 PM 80.6 °F 35.6 °F 20% 30.19 in 10.0 mi South 15.0 mph 21.9 mph N/A   Clear
1:55 PM 80.6 °F 35.6 °F 20% 30.18 in 10.0 mi SSE 17.3 mph 25.3 mph N/A   Clear
2:15 PM 80.6 °F 33.8 °F 18% 30.18 in 10.0 mi South 15.0 mph 26.5 mph N/A   Clear
2:35 PM 82.4 °F 33.8 °F 17% 30.16 in 10.0 mi SSE 13.8 mph 25.3 mph N/A   Clear
2:55 PM 82.4 °F 33.8 °F 17% 30.15 in 10.0 mi SSE 19.6 mph 27.6 mph N/A   Clear
3:15 PM 82.4 °F 35.6 °F 19% 30.15 in 10.0 mi SSE 18.4 mph 24.2 mph N/A   Clear
3:35 PM 84.2 °F 35.6 °F 18% 30.14 in 10.0 mi SE 20.7 mph 28.8 mph N/A   Clear
3:55 PM 84.2 °F 35.6 °F 18% 30.15 in 10.0 mi South 21.9 mph 28.8 mph N/A   Clear
4:15 PM 84.2 °F 33.8 °F 16% 30.14 in 10.0 mi SSE 20.7 mph 25.3 mph N/A   Clear
4:35 PM 84.2 °F 33.8 °F 16% 30.14 in 10.0 mi SSE 17.3 mph 25.3 mph N/A   Clear
4:55 PM 82.4 °F 33.8 °F 17% 30.14 in 10.0 mi SSE 17.3 mph 26.5 mph N/A   Clear
5:15 PM 82.4 °F 33.8 °F 17% 30.13 in 10.0 mi SSE 20.7 mph 28.8 mph N/A   Clear
5:35 PM 82.4 °F 33.8 °F 17% 30.13 in 10.0 mi SSE 17.3 mph 28.8 mph N/A   Clear
5:55 PM 80.6 °F 33.8 °F 18% 30.13 in 10.0 mi SE 21.9 mph 26.5 mph N/A   Clear
6:15 PM 80.6 °F 32.0 °F 17% 30.13 in 10.0 mi SE 20.7 mph 27.6 mph N/A   Clear
6:35 PM 78.8 °F 32.0 °F 18% 30.13 in 10.0 mi SE 19.6 mph 26.5 mph N/A   Clear
6:55 PM 78.8 °F 30.2 °F 17% 30.13 in 10.0 mi SE 19.6 mph 26.5 mph N/A   Clear
7:15 PM 75.2 °F 30.2 °F 19% 30.13 in 10.0 mi SE 16.1 mph - N/A   Clear
7:35 PM 73.4 °F 30.2 °F 20% 30.14 in 10.0 mi SE 16.1 mph - N/A   Clear
7:55 PM 71.6 °F 30.2 °F 22% 30.14 in 10.0 mi SE 13.8 mph - N/A   Clear
8:15 PM 69.8 °F 30.2 °F 23% 30.14 in 10.0 mi SE 13.8 mph - N/A   Clear
8:35 PM 69.8 °F 30.2 °F 23% 30.14 in 10.0 mi SE 15.0 mph - N/A   Clear
8:55 PM 68.0 °F 30.2 °F 24% 30.15 in 10.0 mi SE 15.0 mph - N/A   Clear
9:15 PM 66.2 °F 30.2 °F 26% 30.16 in 10.0 mi SE 15.0 mph - N/A   Clear
9:35 PM 66.2 °F 30.2 °F 26% 30.17 in 10.0 mi SE 15.0 mph - N/A   Clear
9:55 PM 64.4 °F 30.2 °F 28% 30.18 in 10.0 mi SE 15.0 mph - N/A   Clear
10:15 PM 64.4 °F 30.2 °F 28% 30.18 in 10.0 mi SE 13.8 mph - N/A   Clear
10:35 PM 62.6 °F 30.2 °F 30% 30.18 in 10.0 mi SE 12.7 mph - N/A   Clear
10:55 PM 62.6 °F 30.2 °F 30% 30.18 in 10.0 mi SE 13.8 mph - N/A   Clear
11:15 PM 60.8 °F 30.2 °F 31% 30.18 in 10.0 mi SE 11.5 mph - N/A   Clear
11:35 PM 60.8 °F 32.0 °F 34% 30.19 in 10.0 mi SE 11.5 mph - N/A   Clear
11:55 PM 60.8 °F 32.0 °F 34% 30.19 in 10.0 mi SE 12.7 mph - N/A   Clear